• In Moldova, Republic
  • List of Countries
  • For 7 days
  • Water Temperature
  • Satellite Maps
  • Weather Map
  • Weather Widgets
  • user-avatar
    Login

    Hourly Weather Ganja

    Today, 28 May, Sunday

    Time Temperature Precipitation Wind Pressure Humidity
    00:00 +18°C° 0.1 mm 1 mps 722 mmHg 74%
    01:00 +16°C° 0 mm 1 mps 723 mmHg 73%
    02:00 +16°C° 0 mm 2 mps 723 mmHg 72%
    03:00 +16°C° 0 mm 3 mps 723 mmHg 69%
    04:00 +17°C° 0 mm 3 mps 723 mmHg 68%
    05:00 +17°C° 0 mm 3 mps 723 mmHg 67%
    06:00 +18°C° 0 mm 2 mps 723 mmHg 65%
    07:00 +20°C° 0 mm 2 mps 723 mmHg 58%
    08:00 +23°C° 0 mm 2 mps 723 mmHg 51%
    09:00 +25°C° 0 mm 2 mps 723 mmHg 43%
    10:00 +26°C° 0 mm 2 mps 723 mmHg 41%
    11:00 +27°C° 0 mm 2 mps 723 mmHg 38%
    12:00 +28°C° 0 mm 2 mps 723 mmHg 35%
    13:00 +28°C° 0 mm 2 mps 723 mmHg 34%
    14:00 +29°C° 0 mm 2 mps 722 mmHg 34%
    15:00 +29°C° 0 mm 2 mps 722 mmHg 33%
    16:00 +28°C° 0.2 mm 2 mps 722 mmHg 37%
    17:00 +27°C° 0.2 mm 2 mps 723 mmHg 42%
    18:00 +26°C° 0.2 mm 2 mps 723 mmHg 46%
    19:00 +24°C° 0.3 mm 1 mps 724 mmHg 51%
    20:00 +21°C° 0.3 mm 1 mps 724 mmHg 56%
    21:00 +19°C° 0.3 mm 1 mps 725 mmHg 61%
    22:00 +18°C° 0 mm 1 mps 725 mmHg 65%
    23:00 +18°C° 0 mm 1 mps 726 mmHg 68%

    Tomorrow, 29 May, Monday

    Time Temperature Precipitation Wind Pressure Humidity
    00:00 +16°C° 0 mm 1 mps 726 mmHg 71%
    01:00 +16°C° 0 mm 1 mps 726 mmHg 73%
    02:00 +15°C° 0 mm 1 mps 726 mmHg 74%
    03:00 +15°C° 0 mm 1 mps 726 mmHg 75%
    04:00 +16°C° 0 mm 1 mps 727 mmHg 72%
    05:00 +18°C° 0 mm 1 mps 727 mmHg 69%
    06:00 +19°C° 0 mm 1 mps 727 mmHg 65%
    07:00 +21°C° 0 mm 1 mps 727 mmHg 59%
    08:00 +23°C° 0 mm 1 mps 727 mmHg 53%
    09:00 +24°C° 0 mm 1 mps 728 mmHg 47%
    10:00 +25°C° 0 mm 2 mps 727 mmHg 46%
    11:00 +26°C° 0 mm 3 mps 727 mmHg 44%
    12:00 +27°C° 0 mm 3 mps 727 mmHg 43%
    13:00 +28°C° 0.1 mm 4 mps 727 mmHg 44%
    14:00 +28°C° 0.1 mm 4 mps 727 mmHg 45%
    15:00 +28°C° 0.1 mm 4 mps 726 mmHg 46%
    16:00 +28°C° 0.2 mm 4 mps 727 mmHg 49%
    17:00 +27°C° 0.2 mm 4 mps 727 mmHg 53%
    18:00 +26°C° 0.2 mm 4 mps 727 mmHg 56%
    19:00 +23°C° 0.1 mm 5 mps 727 mmHg 60%
    20:00 +21°C° 0.1 mm 5 mps 728 mmHg 64%
    21:00 +20°C° 0.1 mm 5 mps 728 mmHg 68%
    22:00 +19°C° 0 mm 4 mps 728 mmHg 70%
    23:00 +18°C° 0 mm 4 mps 728 mmHg 72%

    Day after tomorrow, 30 May, Tuesday

    Time Temperature Precipitation Wind Pressure Humidity
    00:00 +18°C° 0 mm 3 mps 728 mmHg 75%
    01:00 +17°C° 0 mm 3 mps 728 mmHg 78%
    02:00 +16°C° 0 mm 2 mps 727 mmHg 81%
    03:00 +15°C° 0 mm 1 mps 727 mmHg 83%
    04:00 +16°C° 0 mm 1 mps 727 mmHg 81%
    05:00 +18°C° 0 mm 1 mps 727 mmHg 79%
    06:00 +19°C° 0 mm 1 mps 727 mmHg 77%
    07:00 +20°C° 0 mm 1 mps 727 mmHg 70%
    08:00 +22°C° 0 mm 1 mps 727 mmHg 63%
    09:00 +24°C° 0 mm 1 mps 726 mmHg 56%
    10:00 +25°C° 0 mm 1 mps 726 mmHg 52%
    11:00 +26°C° 0 mm 1 mps 726 mmHg 48%
    12:00 +28°C° 0 mm 1 mps 725 mmHg 44%
    13:00 +28°C° 0 mm 1 mps 725 mmHg 43%
    14:00 +29°C° 0 mm 1 mps 724 mmHg 42%
    15:00 +29°C° 0 mm 1 mps 724 mmHg 40%
    16:00 +29°C° 0 mm 1 mps 724 mmHg 43%
    17:00 +29°C° 0 mm 1 mps 724 mmHg 45%
    18:00 +28°C° 0 mm 1 mps 724 mmHg 48%
    19:00 +26°C° 0 mm 1 mps 724 mmHg 53%
    20:00 +23°C° 0 mm 1 mps 724 mmHg 58%
    21:00 +21°C° 0 mm 1 mps 724 mmHg 63%
    22:00 +20°C° 0 mm 1 mps 724 mmHg 63%
    23:00 +20°C° 0 mm 1 mps 724 mmHg 63%

    31 May, Wednesday

    Time Temperature Precipitation Wind Pressure Humidity
    00:00 +20°C° 0 mm 1 mps 724 mmHg 62%
    01:00 +19°C° 0 mm 1 mps 724 mmHg 62%
    02:00 +19°C° 0 mm 1 mps 724 mmHg 62%
    03:00 +18°C° 0 mm 1 mps 724 mmHg 62%
    04:00 +20°C° 0 mm 1 mps 724 mmHg 59%
    05:00 +21°C° 0 mm 1 mps 724 mmHg 56%
    06:00 +22°C° 0 mm 1 mps 725 mmHg 53%
    07:00 +24°C° 0 mm 1 mps 725 mmHg 47%
    08:00 +26°C° 0 mm 1 mps 725 mmHg 41%
    09:00 +28°C° 0 mm 1 mps 725 mmHg 35%
    10:00 +29°C° 0 mm 1 mps 724 mmHg 33%
    11:00 +30°C° 0 mm 2 mps 724 mmHg 32%
    12:00 +31°C° 0 mm 2 mps 723 mmHg 30%
    13:00 +31°C° 0 mm 2 mps 723 mmHg 31%
    14:00 +31°C° 0 mm 3 mps 722 mmHg 32%
    15:00 +33°C° 0 mm 3 mps 722 mmHg 32%
    16:00 +31°C° 0.3 mm 3 mps 722 mmHg 37%
    17:00 +30°C° 0.3 mm 3 mps 722 mmHg 42%
    18:00 +29°C° 0.3 mm 3 mps 722 mmHg 47%
    19:00 +27°C° 0.5 mm 3 mps 722 mmHg 51%
    20:00 +25°C° 0.5 mm 3 mps 723 mmHg 54%
    21:00 +22°C° 0.5 mm 3 mps 723 mmHg 58%
    22:00 +21°C° 0.6 mm 2 mps 723 mmHg 62%
    23:00 +20°C° 0.6 mm 2 mps 723 mmHg 66%

    1 June, Thursday

    Time Temperature Precipitation Wind Pressure Humidity
    00:00 +20°C° 0.6 mm 1 mps 723 mmHg 70%
    01:00 +19°C° 0.8 mm 1 mps 722 mmHg 73%
    02:00 +18°C° 0.8 mm 1 mps 722 mmHg 76%
    03:00 +18°C° 0.8 mm 1 mps 722 mmHg 79%
    04:00 +18°C° 0.4 mm 2 mps 722 mmHg 77%
    05:00 +18°C° 0.4 mm 2 mps 722 mmHg 74%
    06:00 +19°C° 0.4 mm 2 mps 722 mmHg 72%
    07:00 +21°C° 0.1 mm 2 mps 722 mmHg 65%
    08:00 +23°C° 0.1 mm 2 mps 722 mmHg 57%
    09:00 +25°C° 0.1 mm 3 mps 722 mmHg 50%
    10:00 +26°C° 0 mm 2 mps 721 mmHg 48%
    11:00 +27°C° 0 mm 2 mps 721 mmHg 45%
    12:00 +28°C° 0 mm 2 mps 721 mmHg 43%
    13:00 +28°C° 0.5 mm 2 mps 720 mmHg 43%
    14:00 +29°C° 0.5 mm 2 mps 720 mmHg 42%
    15:00 +29°C° 0.5 mm 1 mps 720 mmHg 42%
    16:00 +29°C° 0.5 mm 1 mps 720 mmHg 44%
    17:00 +28°C° 0.5 mm 1 mps 720 mmHg 47%
    18:00 +28°C° 0.5 mm 1 mps 720 mmHg 49%
    19:00 +25°C° 0.2 mm 1 mps 721 mmHg 50%
    20:00 +23°C° 0.2 mm 2 mps 721 mmHg 52%
    21:00 +20°C° 0.2 mm 2 mps 722 mmHg 53%
    22:00 +19°C° 0.4 mm 2 mps 722 mmHg 57%
    23:00 +19°C° 0.4 mm 2 mps 722 mmHg 60%

    2 June, Friday

    Time Temperature Precipitation Wind Pressure Humidity
    00:00 +18°C° 0.4 mm 2 mps 722 mmHg 64%
    01:00 +18°C° 0.2 mm 2 mps 722 mmHg 66%
    02:00 +17°C° 0.2 mm 2 mps 722 mmHg 69%
    03:00 +17°C° 0.2 mm 3 mps 722 mmHg 72%
    04:00 +18°C° 0 mm 3 mps 722 mmHg 70%
    05:00 +19°C° 0 mm 3 mps 722 mmHg 69%
    06:00 +20°C° 0 mm 3 mps 723 mmHg 68%
    07:00 +21°C° 0 mm 3 mps 723 mmHg 60%
    08:00 +23°C° 0 mm 4 mps 723 mmHg 53%
    09:00 +25°C° 0 mm 4 mps 723 mmHg 46%
    10:00 +26°C° 0.1 mm 4 mps 722 mmHg 44%
    11:00 +27°C° 0.1 mm 3 mps 722 mmHg 42%
    12:00 +28°C° 0.1 mm 3 mps 722 mmHg 40%
    13:00 +28°C° 0.5 mm 3 mps 722 mmHg 40%
    14:00 +29°C° 0.5 mm 2 mps 722 mmHg 40%
    15:00 +29°C° 0.5 mm 2 mps 722 mmHg 40%
    16:00 +29°C° 0.5 mm 2 mps 722 mmHg 43%
    17:00 +28°C° 0.5 mm 1 mps 722 mmHg 45%
    18:00 +28°C° 0.5 mm 1 mps 722 mmHg 48%
    19:00 +25°C° 0.1 mm 1 mps 723 mmHg 51%
    20:00 +23°C° 0.1 mm 1 mps 723 mmHg 53%
    21:00 +20°C° 0.1 mm 2 mps 724 mmHg 56%
    22:00 +19°C° 0.1 mm 2 mps 724 mmHg 59%
    23:00 +19°C° 0.1 mm 1 mps 724 mmHg 62%
    Show more